Amateur Radio Satellites - All Passes

Search period start: 22 May 2013 07:02
Search period end: 23 May 2013 07:02
Location: Vale, 35.4830°N, 81.3830°W

Satellite Date Start Highest point End Downlink Frequencies (MHz)
Time Altitude Azimuth
KITSAT 1 22 May 07:39:23 07:45:38 23° 45° (NE) 07:51:50 435.175 FM
JAS-1B 22 May 07:56:59 07:59:54 14° 90° (E) 08:02:45 435.800 - 435.900 CW/SSB
PCSat 22 May 08:01:11 08:06:33 73° 114° (ESE) 08:11:58 145.825 MHz
AO-7 22 May 08:04:28 08:11:15 29° 300° (WNW) 08:18:03 29.400 - 29.500 MHz
Hamsat 22 May 08:15:40 08:19:59 58° 100° (E) 08:24:18 145.90 MHz
SO-50 22 May 08:18:03 08:21:12 18° 109° (ESE) 08:24:20 436.795 FM
STRAND 1 22 May 08:18:47 08:22:02 17° 266° (W) 08:25:18 ?
Sapphire 22 May 08:34:12 08:39:32 60° 299° (WNW) 08:44:54 437.095 MHz 1200 baud AX-25 AFSK
ISS 22 May 09:02:12 09:03:36 12° 24° (NNE) 09:05:00 145.800 FM
SO-67 22 May 09:21:13 09:24:45 61° 283° (WNW) 09:28:17 435.3500 MHz FM
KITSAT 1 22 May 09:33:45 09:41:54 80° 245° (WSW) 09:50:00 435.175 FM
Oscar 10/S400 22 May 09:39:32 11:49:00 26° 275° (W) 17:43:22 145.825 - 145.975 CW/USB, Beacon 145.810 USB
JAS-2 22 May 09:39:46 09:41:23 11° 85° (E) 09:42:57 435.800 - 435.900 CW/SSB, 435.910 FM
JAS-1B 22 May 09:45:19 09:51:11 58° 288° (WNW) 09:56:43 435.800 - 435.900 CW/SSB
PCSat 22 May 09:47:22 09:50:33 16° 312° (NW) 09:53:45 145.825 MHz
Hamsat 22 May 09:54:16 09:55:32 11° 294° (WNW) 09:56:47 145.90 MHz
SO-50 22 May 09:56:51 10:01:28 46° 303° (WNW) 10:06:03 436.795 FM
Oscar 11 22 May 10:13:35 10:16:01 15° 93° (E) 10:18:26 145.825 FM, Beacon 2401.500 USB
ISS 22 May 10:37:27 10:40:49 75° 41° (NE) 10:44:10 145.800 FM
HO-68 22 May 10:43:05 10:50:10 61° 103° (ESE) 10:57:14 435.675 MHz FM
JAS-2 22 May 11:20:38 11:27:31 89° 284° (WNW) 11:33:31 435.800 - 435.900 CW/SSB, 435.910 FM
UOSAT-12 22 May 11:22:25 11:26:05 25° 111° (ESE) 11:29:47 437.025 FM, 437.400 FM
KITSAT 1 22 May 11:33:00 11:36:01 12° 261° (W) 11:39:02 435.175 FM
PANSAT 22 May 11:36:34 11:38:28 13° 160° (SSE) 11:40:22 not established
OPAL 22 May 11:38:53 11:43:48 55° 103° (ESE) 11:48:38 ?
Oscar 11 22 May 11:48:17 11:52:23 41° 287° (WNW) 11:56:29 145.825 FM, Beacon 2401.500 USB
HO-68 22 May 12:31:54 12:37:18 24° 299° (WNW) 12:42:42 435.675 MHz FM
UOSAT-12 22 May 13:02:09 13:06:07 30° 307° (NW) 13:10:07 437.025 FM, 437.400 FM
MaSat-1 22 May 13:05:36 13:08:07 24° 255° (WSW) 13:10:21 437.345 MHz
JAS-2 22 May 13:08:17 13:11:19 14° 303° (WNW) 13:14:13 435.800 - 435.900 CW/SSB, 435.910 FM
Oscar 16 22 May 13:11:55 13:15:01 16° 64° (ENE) 13:18:07 437.025 USB, Beacon 2401.1428
PANSAT 22 May 13:15:01 13:18:17 26° 173° (S) 13:21:33 not established
OPAL 22 May 13:19:20 13:22:12 16° 298° (WNW) 13:25:03 ?
AO-27 22 May 13:20:26 13:23:01 14° 63° (ENE) 13:25:36 436.795 MHz FM
ITAMSAT 1 22 May 13:26:42 13:29:43 16° 64° (ENE) 13:32:45 435.822 SSB
Uribyol 2 22 May 14:05:44 14:10:32 40° 71° (ENE) 14:15:21 436.500 FM
Oscar 19 22 May 14:09:35 14:14:35 50° 73° (ENE) 14:19:36 437.125 CW, 437.150 USB
AO-Echo 22 May 14:19:10 14:21:54 15° 66° (ENE) 14:24:36 ?
Oscar 16 22 May 14:48:48 14:53:52 55° 259° (W) 14:59:00 437.025 USB, Beacon 2401.1428
PANSAT 22 May 14:54:54 14:58:14 27° 185° (S) 15:01:33 not established
AO-27 22 May 14:56:50 15:01:57 64° 258° (WSW) 15:07:07 436.795 MHz FM
ITAMSAT 1 22 May 15:03:40 15:08:43 56° 259° (W) 15:13:49 435.822 SSB
Gurwin Techsat 1B 22 May 15:20:16 15:24:23 24° 67° (ENE) 15:28:31 435.225 FM
AO-7 22 May 15:20:58 15:23:14 11° 49° (NE) 15:25:29 29.400 - 29.500 MHz
RS-15 22 May 15:21:06 15:29:39 23° 101° (ESE) 15:37:57 29.354 - 29.394 USB, Beacon 29.352 USB
Saudisat 1A 22 May 15:26:50 15:31:19 58° 58° (ENE) 15:35:41 436.775 MHz
Uribyol 2 22 May 15:46:19 15:50:07 21° 265° (W) 15:53:58 436.500 FM
Uosat F 22 May 15:47:44 15:52:35 54° 73° (ENE) 15:57:27 435.120 FM
Oscar 19 22 May 15:50:58 15:54:11 17° 267° (W) 15:57:25 437.125 CW, 437.150 USB
AO-Echo 22 May 15:55:32 16:00:17 50° 260° (W) 16:04:56 ?
PANSAT 22 May 16:35:45 16:38:05 15° 198° (SSW) 16:40:24 not established
TMSAT-1 22 May 16:37:02 16:42:20 86° 76° (ENE) 16:47:39 436.925 FM
PCSat 22 May 16:52:37 16:57:25 31° 56° (NE) 17:02:12 145.825 MHz
Gurwin Techsat 1B 22 May 16:59:12 17:04:06 38° 262° (W) 17:09:01 435.225 FM
AO-7 22 May 17:06:13 17:14:19 61° 68° (ENE) 17:22:27 29.400 - 29.500 MHz
Saudisat 1A 22 May 17:08:45 17:10:27 12° 253° (WSW) 17:12:08 436.775 MHz
Sapphire 22 May 17:25:13 17:30:34 56° 61° (ENE) 17:35:53 437.095 MHz 1200 baud AX-25 AFSK
RS-15 22 May 17:28:35 17:40:45 84° 299° (WNW) 17:52:26 29.354 - 29.394 USB, Beacon 29.352 USB
Uosat F 22 May 17:29:03 17:31:41 14° 267° (W) 17:34:19 435.120 FM
SO-50 22 May 18:31:48 18:36:19 69° 59° (ENE) 18:40:45 436.795 FM
PCSat 22 May 18:36:01 18:40:46 32° 252° (WSW) 18:45:30 145.825 MHz
JAS-1B 22 May 18:37:39 18:42:56 18° 61° (ENE) 18:47:48 435.800 - 435.900 CW/SSB
STRAND 1 22 May 18:52:21 18:56:08 21° 95° (E) 18:59:55 ?
AO-7 22 May 19:00:56 19:07:29 26° 264° (W) 19:14:05 29.400 - 29.500 MHz
Hamsat 22 May 19:07:20 19:10:55 28° 71° (ENE) 19:14:32 145.90 MHz
Sapphire 22 May 19:10:10 19:13:28 17° 256° (WSW) 19:16:46 437.095 MHz 1200 baud AX-25 AFSK
RS-15 22 May 19:45:42 19:55:03 26° 323° (NW) 20:04:08 29.354 - 29.394 USB, Beacon 29.352 USB
SO-67 22 May 19:54:26 19:57:30 28° 73° (ENE) 20:00:35 435.3500 MHz FM
UOSAT-12 22 May 19:55:59 19:57:50 12° 45° (NE) 19:59:40 437.025 FM, 437.400 FM
JAS-1B 22 May 20:23:08 20:32:38 85° 75° (ENE) 20:40:47 435.800 - 435.900 CW/SSB
STRAND 1 22 May 20:30:40 20:35:26 40° 289° (WNW) 20:40:12 ?
Hamsat 22 May 20:43:56 20:46:59 20° 266° (W) 20:50:04 145.90 MHz
HO-68 22 May 21:08:51 21:15:04 34° 65° (ENE) 21:21:18 435.675 MHz FM
JAS-2 22 May 21:27:35 21:34:19 34° 66° (ENE) 21:41:09 435.800 - 435.900 CW/SSB, 435.910 FM
SO-67 22 May 21:29:09 21:30:59 14° 267° (W) 21:32:49 435.3500 MHz FM
UOSAT-12 22 May 21:33:57 21:38:34 81° 242° (WSW) 21:43:10 437.025 FM, 437.400 FM
KITSAT 1 22 May 22:06:11 22:11:33 20° 102° (ESE) 22:16:55 435.175 FM
RS-15 22 May 22:09:22 22:13:38 12° 359° (N) 22:17:50 29.354 - 29.394 USB, Beacon 29.352 USB
JAS-1B 22 May 22:17:32 22:23:30 19° 267° (W) 22:29:03 435.800 - 435.900 CW/SSB
Oscar 11 22 May 22:40:14 22:44:32 77° 258° (WSW) 22:48:52 145.825 FM, Beacon 2401.500 USB
OPAL 22 May 22:50:42 22:55:52 72° 73° (ENE) 23:01:02 ?
HO-68 22 May 22:55:55 23:02:33 41° 261° (W) 23:09:14 435.675 MHz FM
JAS-2 22 May 23:11:41 23:18:58 48° 262° (W) 23:26:31 435.800 - 435.900 CW/SSB, 435.910 FM
KITSAT 1 22 May 23:58:00 00:06:03 76° 299° (WNW) 00:14:10 435.175 FM
RS-15 23 May 00:23:27 00:32:11 25° 36° (NE) 00:40:39 29.354 - 29.394 USB, Beacon 29.352 USB
OPAL 23 May 00:33:33 00:35:10 11° 267° (W) 00:36:48 ?
ISS 23 May 01:43:45 01:44:31 11° 126° (SE) 01:45:18 145.800 FM
MaSat-1 23 May 01:49:40 01:56:37 49° 109° (ESE) 02:02:33 437.345 MHz
KITSAT 1 23 May 01:57:49 02:02:52 17° 320° (NW) 02:07:57 435.175 FM
Uribyol 2 23 May 02:22:31 02:26:07 19° 94° (E) 02:29:42 436.500 FM
Oscar 19 23 May 02:25:07 02:29:09 23° 95° (E) 02:33:09 437.125 CW, 437.150 USB
RS-15 23 May 02:35:14 02:46:21 85° 61° (ENE) 02:57:15 29.354 - 29.394 USB, Beacon 29.352 USB
Oscar 16 23 May 03:03:38 03:08:48 68° 102° (ESE) 03:13:55 437.025 USB, Beacon 2401.1428
AO-27 23 May 03:13:00 03:18:10 60° 101° (E) 03:23:19 436.795 MHz FM
ISS 23 May 03:17:34 03:20:49 59° 320° (NW) 03:24:07 145.800 FM
ITAMSAT 1 23 May 03:19:35 03:24:48 68° 102° (ESE) 03:29:59 435.822 SSB
MaSat-1 23 May 03:32:54 03:38:51 29° 299° (WNW) 03:43:59 437.345 MHz
Gurwin Techsat 1B 23 May 03:41:29 03:42:58 11° 91° (E) 03:44:26 435.225 FM
Uosat F 23 May 03:59:24 04:03:13 22° 95° (E) 04:07:01 435.120 FM
Uribyol 2 23 May 04:00:48 04:05:47 45° 288° (WNW) 04:10:44 436.500 FM
Oscar 19 23 May 04:03:52 04:08:33 36° 290° (WNW) 04:13:12 437.125 CW, 437.150 USB
AO-Echo 23 May 04:05:29 04:10:14 65° 101° (ESE) 04:15:04 ?
Oscar 16 23 May 04:45:14 04:47:32 13° 297° (WNW) 04:49:50 437.025 USB, Beacon 2401.1428
RS-15 23 May 04:50:05 04:57:10 20° 260° (W) 05:04:14 29.354 - 29.394 USB, Beacon 29.352 USB
AO-27 23 May 04:54:15 04:57:09 15° 296° (WNW) 05:00:04 436.795 MHz FM
TMSAT-1 23 May 04:56:16 05:01:20 44° 99° (E) 05:06:23 436.925 FM
ISS 23 May 04:57:25 04:58:08 11° 338° (NNW) 04:58:51 145.800 FM
ITAMSAT 1 23 May 05:01:14 05:03:41 13° 297° (WNW) 05:06:08 435.822 SSB
AO-7 23 May 05:12:22 05:18:43 24° 95° (E) 05:25:01 29.400 - 29.500 MHz
Gurwin Techsat 1B 23 May 05:18:06 05:23:25 74° 285° (WNW) 05:28:42 435.225 FM
Saudisat 1A 23 May 05:31:31 05:35:32 32° 113° (ESE) 05:39:37 436.775 MHz
Uosat F 23 May 05:37:29 05:42:04 37° 289° (WNW) 05:46:39 435.120 FM
AO-Echo 23 May 05:46:46 05:48:29 12° 296° (WNW) 05:50:14 ?
STRAND 1 23 May 06:05:45 06:09:38 23° 67° (ENE) 06:13:32 ?
TMSAT-1 23 May 06:37:06 06:40:55 20° 294° (WNW) 06:44:43 436.925 FM

Developed and maintained by Chris Peat, Heavens-Above GmbH. Please read the updated FAQ before sending e-mail. Imprint. DLR
